Location: Miles
(41.4492°N, 81.6087°W)
Time: 10:36:03
(UTC+00:00)

Transit 4A - All Passes

Search period start: 07 September 2024 00:00
Search period end: 17 September 2024 00:00
Orbit: 867 x 975 km, 66.8° (Epoch: 06 September)

Date Brightness Start Highest point End Pass type
(mag) Time Alt. Az. Time Alt. Az. Time Alt. Az.
07 Sep - 08:47:30 10° SSE 08:51:52 22° ESE 08:56:20 10° ENE visible
07 Sep - 10:31:59 10° SW 10:37:42 57° NW 10:43:35 10° NNE visible
07 Sep - 12:22:45 10° WNW 12:25:26 13° NNW 12:28:09 10° N daylight
07 Sep - 17:48:16 10° NNW 17:53:41 30° NE 17:59:10 10° ESE daylight
07 Sep - 19:34:15 10° NW 19:40:17 53° WSW 19:46:25 10° S daylight
08 Sep - 08:55:28 10° S 09:00:37 34° ESE 09:05:53 10° NE visible
08 Sep - 10:41:22 10° WSW 10:46:49 40° NW 10:52:26 10° NNE daylight
08 Sep - 16:13:26 10° NNE 16:14:47 11° NNE 16:16:07 10° NE daylight
08 Sep - 17:57:01 10° NNW 18:02:53 42° NE 18:08:50 10° ESE daylight
08 Sep - 19:43:31 10° NW 19:49:08 36° WSW 19:54:50 10° S daylight
09 Sep - 09:03:51 10° S 09:09:26 51° ESE 09:15:10 10° NE visible
09 Sep - 10:51:01 10° WSW 10:56:02 29° NW 11:01:11 10° NNE daylight
09 Sep - 16:21:10 10° N 16:24:19 14° NE 16:27:30 10° ENE daylight
09 Sep - 18:05:51 10° NNW 18:11:59 59° NE 18:18:15 10° SE daylight
09 Sep - 19:53:01 10° NW 19:57:55 25° WSW 20:02:52 10° SSW daylight
10 Sep - 09:12:32 10° SSW 09:18:20 76° ESE 09:24:17 10° NNE visible
10 Sep - 11:00:55 10° W 11:05:20 21° NW 11:09:49 10° N daylight
10 Sep - 16:29:32 10° N 16:33:46 19° NE 16:38:03 10° E daylight
10 Sep - 18:14:46 10° NNW 18:21:03 83° ENE 18:27:24 10° SSE daylight
10 Sep - 20:02:58 10° WNW 20:06:37 16° WSW 20:10:18 10° SW daylight
11 Sep - 07:38:14 10° SE 07:41:44 17° ESE 07:45:17 10° ENE visible
11 Sep - 09:21:29 10° SW 09:27:18 74° WNW 09:33:17 10° NNE visible
11 Sep - 11:11:11 10° WNW 11:14:43 16° NW 11:18:20 10° N daylight
11 Sep - 16:38:06 10° N 16:43:07 25° NE 16:48:12 10° E daylight
11 Sep - 18:23:48 10° NW 18:30:00 70° WSW 18:36:18 10° SSE daylight
12 Sep - 07:45:46 10° SSE 07:50:25 25° ESE 07:55:10 10° NE visible
12 Sep - 09:30:41 10° SW 09:36:21 51° NW 09:42:11 10° NNE visible
12 Sep - 11:21:56 10° NW 11:24:13 12° NNW 11:26:30 10° N daylight
12 Sep - 16:46:48 10° NNW 16:52:23 33° NE 16:58:02 10° ESE daylight
12 Sep - 18:32:57 10° NW 18:38:53 48° WSW 18:44:56 10° S daylight
13 Sep - 07:53:52 10° S 07:59:11 38° ESE 08:04:38 10° NE visible
13 Sep - 09:40:08 10° WSW 09:45:30 36° NW 09:51:00 10° NNE visible
13 Sep - 15:11:30 10° N 15:13:34 12° NNE 15:15:40 10° NE daylight
13 Sep - 16:55:35 10° NNW 17:01:34 46° NE 17:07:37 10° SE daylight
13 Sep - 18:42:16 10° NW 18:47:43 32° WSW 18:53:14 10° S daylight
14 Sep - 08:02:20 10° SSW 08:08:01 58° ESE 08:13:51 10° NE visible
14 Sep - 09:49:51 10° WSW 09:54:44 26° NW 09:59:44 10° N visible
14 Sep - 15:19:33 10° N 15:23:05 15° NE 15:26:39 10° ENE daylight
14 Sep - 17:04:26 10° NNW 17:10:39 65° ENE 17:16:57 10° SE daylight
14 Sep - 18:51:50 10° WNW 18:56:28 22° WSW 19:01:08 10° SSW daylight
15 Sep - 06:29:39 10° ESE 06:31:37 12° E 06:33:35 10° E visible
15 Sep - 08:11:06 10° SSW 08:16:55 85° ESE 08:22:56 10° NNE visible
15 Sep - 09:59:51 10° W 10:04:03 20° NW 10:08:21 10° N visible
15 Sep - 15:28:00 10° N 15:32:31 20° NE 15:37:03 10° E daylight
15 Sep - 17:13:23 10° NNW 17:19:40 89° WSW 17:26:02 10° SSE daylight
15 Sep - 19:02:01 10° WNW 19:05:09 14° WSW 19:08:18 10° SW daylight
16 Sep - 06:36:19 10° SSE 06:40:15 19° ESE 06:44:14 10° ENE visible
16 Sep - 08:20:07 10° SW 08:25:55 67° WNW 08:31:54 10° NNE visible
16 Sep - 10:10:13 10° WNW 10:13:28 15° NW 10:16:47 10° N visible
16 Sep - 15:36:37 10° N 15:41:50 27° NE 15:47:07 10° ESE daylight
16 Sep - 17:22:26 10° NW 17:28:37 62° WSW 17:34:52 10° SSE daylight
